Weather History for Cecil Field, FL

Change the Weather History Date:

Monday, April 1, 2013

  Actual Average (KJAX) Record (KJAX)
Temperature  
Mean Temperature 70 °F 64 °F  
Max Temperature 80 °F 77 °F 89 °F (1974)
Min Temperature 59 °F 52 °F 34 °F (1987)
Degree Days  
Heating Degree Days 0 3  
Month to date heating degree days 3  
Since 1 July heating degree days 1292  
Cooling Degree Days 4 2  
Month to date cooling degree days 2  
Year to date cooling degree days 85  
Growing Degree Days 20 (Base 50)    
Moisture  
Dew Point 60 °F    
Average Humidity 81    
Maximum Humidity 100    
Minimum Humidity 54    
Precipitation  
Precipitation 0.00 in 0.11 in 2.24 in (1973)
Month to date precipitation 0.11  
Year to date precipitation 10.55  
Snow  
Snow 0.00 in 0.00 in 0.00 in (2002)
Month to date snowfall 0.0  
Since 1 July snowfall T  
Snow Depth -    
Sea Level Pressure  
Sea Level Pressure 29.97 in    
Wind  
Wind Speed 7 mph (SW)    
Max Wind Speed 17 mph    
Max Gust Speed 18 mph    
Visibility 10 miles    
Events      
T = Trace of Precipitation, MM = Missing Value Source: NWS Daily Summary

Daily Weather History Graph

Daily Weather History Graph

Search for Another Location

Airport:

Trip Planner

Search our weather history database for the weather conditions in past years. The results will help you decide how hot, cold, wet, or windy it might be!

Date:

Astronomy

Apr. 01, 2013 Rise Set
Actual Time 7:16 AM EDT 7:46 PM EDT
Civil Twilight 6:52 AM EDT 8:10 PM EDT
Nautical Twilight 6:24 AM EDT 8:38 PM EDT
Astronomical Twilight 5:55 AM EDT 9:07 PM EDT
Moon 12:35 AM EDT (4/1) 11:20 AM EDT (4/1)
Length of Visible Light 13h 18m
Length of Day
12h 30m
Waning Gibbous, 67% of the Moon is Illuminated
Apr 1
Waning Gibbous
Apr 3
Last Quarter
Apr 10
New
Apr 18
First Quarter
Apr 25
Full

Hourly Weather History & Observations

Time (EDT) Temp. Heat Index Dew Point Humidity Pressure Visibility Wind Dir Wind Speed Gust Speed Precip Events Conditions
12:15 AM 64.4 °F - 57.2 °F 77% 30.02 in 10.0 mi SSW 9.2 mph - N/A   Clear
12:35 AM 62.6 °F - 57.2 °F 82% 30.01 in 10.0 mi SSW 8.1 mph - N/A   Clear
12:55 AM 64.4 °F - 57.2 °F 77% 30.00 in 10.0 mi SSW 9.2 mph - N/A   Clear
1:15 AM 62.6 °F - 57.2 °F 82% 30.00 in 10.0 mi SSW 8.1 mph - N/A   Clear
1:35 AM 62.6 °F - 57.2 °F 82% 30.00 in 10.0 mi SSW 9.2 mph - N/A   Clear
1:55 AM 62.6 °F - 57.2 °F 82% 30.00 in 10.0 mi SW 9.2 mph - N/A   Clear
2:15 AM 62.6 °F - 57.2 °F 82% 29.99 in 10.0 mi SSW 6.9 mph - N/A   Clear
2:35 AM 60.8 °F - 57.2 °F 88% 29.98 in 10.0 mi SSW 6.9 mph - N/A   Clear
3:15 AM 59.0 °F - 57.2 °F 94% 29.97 in 10.0 mi South 4.6 mph - N/A   Clear
3:35 AM 59.0 °F - 57.2 °F 94% 29.97 in 10.0 mi South 4.6 mph - N/A   Clear
3:55 AM 59.0 °F - 57.2 °F 94% 29.97 in 10.0 mi Calm Calm - N/A   Clear
4:15 AM 59.0 °F - 57.2 °F 94% 29.97 in 10.0 mi SW 3.5 mph - N/A   Clear
4:35 AM 59.0 °F - 57.2 °F 94% 29.96 in 10.0 mi Calm Calm - N/A   Clear
4:55 AM 59.0 °F - 59.0 °F 100% 29.96 in 10.0 mi SSW 5.8 mph - N/A   Clear
5:15 AM 59.0 °F - 59.0 °F 100% 29.96 in 10.0 mi South 3.5 mph - N/A   Clear
5:35 AM 59.0 °F - 59.0 °F 100% 29.97 in 10.0 mi Calm Calm - N/A   Mostly Cloudy
5:55 AM 60.8 °F - 59.0 °F 94% 29.98 in 10.0 mi South 3.5 mph - N/A   Mostly Cloudy
6:15 AM 60.8 °F - 59.0 °F 94% 29.98 in 10.0 mi Calm Calm - N/A   Mostly Cloudy
6:35 AM 60.8 °F - 59.0 °F 94% 29.98 in 10.0 mi Calm Calm - N/A   Scattered Clouds
6:50 AM 60.8 °F - 59.0 °F 94% 29.96 in 10.0 mi South 8.1 mph - N/A   Mostly Cloudy
7:50 AM 59.0 °F - 59.0 °F 100% 29.99 in 10.0 mi South 4.6 mph - N/A   Scattered Clouds
8:50 AM 64.4 °F - 60.8 °F 88% 30.00 in 10.0 mi SW 8.1 mph - N/A   Clear
9:50 AM 68.0 °F - 62.6 °F 83% 30.00 in 10.0 mi SSW 10.4 mph - N/A   Mostly Cloudy
10:50 AM 71.6 °F - 62.6 °F 73% 29.99 in 10.0 mi WSW 11.5 mph - N/A   Scattered Clouds
11:50 AM 77.0 °F - 62.6 °F 61% 29.99 in 10.0 mi WSW 11.5 mph 18.4 mph N/A   Scattered Clouds
12:50 PM 77.0 °F - 62.6 °F 61% 29.98 in 10.0 mi WSW 17.3 mph - N/A   Mostly Cloudy
1:50 PM 77.0 °F - 62.6 °F 61% 29.95 in 10.0 mi WSW 17.3 mph - N/A   Scattered Clouds
2:50 PM 75.2 °F - 64.4 °F 69% 29.94 in 10.0 mi West 9.2 mph - N/A   Mostly Cloudy
3:50 PM 80.6 °F 81.8 °F 62.6 °F 54% 29.92 in 10.0 mi West 12.7 mph - N/A   Scattered Clouds
4:50 PM 80.6 °F 81.8 °F 62.6 °F 54% 29.91 in 10.0 mi West 15.0 mph - N/A   Scattered Clouds
5:50 PM 75.2 °F - 64.4 °F 69% 29.90 in 10.0 mi West 5.8 mph - N/A   Mostly Cloudy
6:50 PM 77.0 °F - 62.6 °F 61% 29.91 in 10.0 mi West 8.1 mph - N/A   Mostly Cloudy
7:50 PM 73.4 °F - 60.8 °F 65% 29.92 in 10.0 mi Calm Calm - N/A   Partly Cloudy
8:15 PM 69.8 °F - 60.8 °F 73% 29.93 in 10.0 mi Calm Calm - N/A   Scattered Clouds
8:35 PM 69.8 °F - 60.8 °F 73% 29.94 in 10.0 mi West 4.6 mph - N/A   Partly Cloudy
8:55 PM 71.6 °F - 60.8 °F 69% 29.94 in 10.0 mi SW 5.8 mph - N/A   Mostly Cloudy
9:15 PM 71.6 °F - 62.6 °F 73% 29.95 in 10.0 mi WSW 4.6 mph - N/A   Mostly Cloudy
9:35 PM 71.6 °F - 60.8 °F 69% 29.96 in 10.0 mi WSW 4.6 mph - N/A   Partly Cloudy
9:55 PM 69.8 °F - 60.8 °F 73% 29.97 in 10.0 mi SW 4.6 mph - N/A   Scattered Clouds
10:15 PM 69.8 °F - 62.6 °F 78% 29.98 in 10.0 mi WSW 5.8 mph - N/A   Mostly Cloudy
10:35 PM 68.0 °F - 62.6 °F 83% 29.98 in 10.0 mi SW 4.6 mph - N/A   Mostly Cloudy
10:55 PM 66.2 °F - 60.8 °F 83% 29.99 in 10.0 mi WSW 3.5 mph - N/A   Partly Cloudy
11:15 PM 64.4 °F - 60.8 °F 88% 29.99 in 10.0 mi SW 4.6 mph - N/A   Clear
11:35 PM 62.6 °F - 59.0 °F 88% 30.00 in 10.0 mi Calm Calm - N/A   Clear
11:55 PM 62.6 °F - 59.0 °F 88% 30.00 in 10.0 mi Calm Calm - N/A   Clear